Theta_e
326 329 329 330 330 328 327 326 324 325 327 325 322 319 327 336 322 316 336 346 332 332 339 336 339 346 344 342 341 340 343 344 343 348 353 349 350 357 361 366 371 371 364 363 362 357 356 355 354 353 351 348 347 345 342 340 339 338 338 339 340 341 341 340 338 336 336 336 336 336 336 334 334 334 334 334 334 334 334 335 335 334 333 332 332 332 332
325 329 329 331 329 326 327 328 328 328 328 325 325 325 327 332 328 328 341 346 338 335 337 336 338 344 343 340 342 340 340 344 346 346 347 343 344 353 360 364 368 367 365 364 362 358 356 354 355 353 351 350 348 344 340 337 335 335 336 339 341 342 342 341 338 337 336 336 336 336 335 334 334 334 335 335 335 335 335 336 336 335 333 332 332 332 332
320 326 328 328 328 326 324 325 329 329 328 326 326 327 327 328 329 331 340 343 341 337 339 341 340 347 351 344 341 343 344 344 344 342 342 342 344 350 359 366 366 367 370 368 364 360 357 356 356 354 352 351 347 341 337 333 332 334 338 341 342 343 344 342 340 338 337 337 337 336 335 335 334 335 335 336 335 335 336 337 337 335 333 332 332 331 331
313 322 327 326 328 326 319 320 325 326 325 325 326 329 330 329 329 332 332 329 334 337 340 340 340 345 347 344 343 345 346 343 342 344 346 348 350 352 358 366 368 368 367 366 364 361 357 357 357 355 354 351 346 342 336 332 333 336 339 343 344 345 344 342 340 339 338 338 339 338 337 336 336 336 336 336 336 336 337 338 337 335 333 332 331 331 331
313 322 325 324 323 319 315 319 325 327 328 328 328 330 333 333 335 333 326 325 335 343 340 337 339 340 341 343 341 340 343 345 345 346 348 347 348 352 355 362 367 365 361 360 362 361 359 359 358 356 354 349 343 338 334 333 335 337 340 344 346 345 345 342 340 339 338 339 339 338 338 337 337 337 336 336 337 337 338 338 336 334 332 331 331 331 332
313 320 324 323 320 315 318 327 330 332 332 329 328 328 331 335 337 336 332 335 341 341 336 336 338 338 341 345 342 340 342 346 346 346 346 347 347 348 350 353 359 363 362 360 361 363 360 355 355 355 351 343 336 334 334 335 338 339 341 345 346 346 346 343 341 339 338 338 338 337 337 337 337 337 336 337 337 337 338 338 335 333 332 331 332 332 333
316 320 321 319 316 319 328 333 332 331 332 331 331 332 333 333 335 336 336 337 338 337 336 337 337 339 342 342 343 342 341 343 345 343 344 348 349 348 351 353 356 365 370 365 363 364 356 348 351 353 346 338 335 337 338 337 337 340 344 344 345 346 346 344 342 340 339 338 338 338 337 337 337 337 337 337 337 338 339 337 334 332 332 332 332 332 333
319 318 316 316 321 329 334 337 334 332 333 334 332 330 334 335 334 336 336 335 338 340 338 335 338 341 340 337 340 343 341 340 340 337 338 342 344 347 354 358 362 369 370 366 365 364 358 352 353 349 343 339 339 340 339 337 338 343 346 345 344 345 345 344 343 341 339 339 338 338 338 337 338 337 338 338 338 339 339 337 334 332 332 332 332 331 331
321 314 313 318 325 329 332 333 335 336 336 336 332 327 332 340 337 334 336 337 337 337 335 335 337 338 336 336 338 337 336 338 339 336 337 338 340 348 353 355 360 364 364 364 364 363 361 356 350 346 344 341 339 339 339 337 340 344 345 345 344 343 344 345 343 341 340 338 338 338 338 338 338 338 338 337 337 338 339 337 333 332 332 332 331 330 331
326 318 314 319 319 319 325 332 337 337 333 336 338 331 330 339 339 333 336 340 338 336 336 337 338 336 335 336 337 336 336 338 339 339 338 337 341 350 353 354 358 360 361 363 362 362 362 354 347 346 342 337 337 339 338 338 341 344 345 345 344 343 344 344 343 341 339 338 338 338 338 337 337 337 336 335 335 336 337 336 333 332 332 332 330 330 330
325 319 316 318 316 319 331 338 338 336 333 335 338 328 325 336 340 334 334 337 337 337 337 338 338 337 335 335 336 337 337 337 338 340 341 341 346 350 353 355 358 359 360 360 360 362 361 354 348 346 341 336 335 337 338 340 343 345 345 344 343 344 344 343 341 340 339 338 338 338 338 337 337 335 334 333 333 334 335 334 333 333 333 331 330 330 330
321 320 317 318 319 327 338 337 333 335 336 337 333 321 323 338 344 338 336 336 338 340 340 338 336 335 335 336 336 336 336 336 338 342 344 347 351 354 354 356 357 358 359 359 360 362 361 355 349 345 341 338 338 339 341 342 344 345 345 345 344 344 343 343 340 339 338 338 338 337 337 337 336 334 333 332 332 332 333 334 334 333 333 332 330 330 329
319 319 317 317 322 335 341 335 335 338 333 331 326 322 332 346 346 340 337 335 336 340 339 336 335 335 336 336 335 335 333 336 341 342 342 344 349 351 353 356 358 358 360 360 359 359 358 354 347 341 339 339 342 344 345 344 343 343 344 344 343 343 343 342 340 339 338 337 337 337 338 338 336 334 333 331 331 332 333 335 334 333 333 332 331 330 330
319 320 319 317 323 337 341 334 335 337 332 329 329 335 343 345 341 338 336 335 337 339 337 335 336 337 334 332 333 333 333 339 344 341 339 342 343 346 352 358 359 359 359 359 357 355 353 349 344 341 340 342 345 346 345 345 344 343 343 343 342 342 342 340 340 339 338 337 337 338 338 337 336 335 333 332 332 332 333 335 334 334 333 332 331 330 330
321 319 319 319 324 337 340 334 336 341 343 342 343 344 342 338 337 339 338 338 340 339 337 337 338 339 337 336 337 336 337 345 346 343 345 347 345 348 356 360 359 359 359 358 354 351 348 346 345 344 343 345 346 345 346 346 345 344 344 343 342 341 341 340 340 340 338 338 339 339 338 337 336 335 334 332 333 334 334 334 334 334 332 330 329 328 328
327 320 322 328 333 338 337 338 339 341 346 348 345 341 339 337 337 339 338 339 342 340 338 340 339 339 340 342 343 341 342 346 346 345 349 351 349 351 357 359 358 357 359 357 350 345 344 344 343 343 343 343 344 345 348 348 347 346 346 344 342 342 341 340 340 339 338 339 339 339 338 337 335 334 332 332 332 333 332 331 330 331 331 329 328 328 328
337 332 336 339 340 339 336 338 339 337 338 340 339 339 340 338 338 339 339 341 343 341 341 342 340 340 340 341 342 340 339 343 348 348 349 350 350 347 349 355 356 356 356 353 345 342 342 342 341 341 338 337 342 347 349 350 350 350 348 347 345 343 341 341 341 340 340 339 338 338 337 335 332 332 332 331 331 332 331 330 329 329 331 329 327 328 328
342 339 340 338 336 337 335 333 334 334 335 337 337 339 340 339 338 338 339 341 341 342 342 343 342 342 342 341 342 341 340 346 352 351 350 351 349 342 343 353 353 351 352 348 341 342 347 347 347 347 345 344 348 350 350 350 351 350 349 349 347 344 342 344 343 341 340 337 334 333 333 331 330 331 332 331 330 330 330 330 330 331 331 330 329 329 329
338 337 340 338 335 336 336 333 332 333 333 333 335 337 339 338 337 337 339 340 340 339 340 343 344 342 340 342 345 345 348 354 355 353 353 352 348 342 344 350 348 345 347 345 341 345 351 351 349 350 349 349 348 347 346 346 346 347 349 350 349 348 347 345 343 341 338 334 333 333 332 330 330 330 331 331 329 328 329 332 333 333 332 331 331 330 329
339 339 340 337 334 335 334 332 332 333 333 333 334 334 335 335 335 335 336 337 338 337 337 341 343 341 340 344 348 347 349 352 353 354 354 353 350 345 345 348 344 341 340 340 342 347 349 348 346 345 345 343 340 340 342 341 338 341 347 349 348 348 346 344 342 340 338 336 336 335 333 332 332 331 331 330 330 329 330 332 332 331 330 330 329 328 328
340 342 341 337 337 339 336 331 332 334 333 333 333 331 332 332 332 333 334 334 336 338 338 339 342 342 345 348 347 344 345 346 347 347 348 347 346 343 344 347 345 343 342 342 345 347 346 345 345 343 340 337 333 331 335 336 335 338 343 345 345 343 341 341 340 338 337 336 334 333 333 333 331 328 327 327 329 329 328 327 326 325 325 325 324 324 325
340 341 341 339 341 342 337 330 331 333 333 333 333 331 331 331 331 332 332 332 334 337 338 340 341 345 349 348 345 344 345 346 346 345 344 342 341 342 345 347 349 350 350 349 347 346 344 343 343 341 339 336 332 330 333 336 337 338 340 341 341 338 336 336 336 334 334 333 332 331 332 332 330 327 325 325 326 326 324 323 322 321 321 321 320 321 322
336 335 335 336 338 339 335 330 330 332 333 333 332 330 331 331 330 330 330 331 333 335 338 338 340 344 348 346 342 342 345 347 347 346 344 342 343 346 348 350 351 350 349 347 346 343 342 341 340 339 338 336 332 332 335 336 336 337 337 337 338 336 334 334 333 332 331 331 330 329 329 330 329 327 325 324 324 323 321 321 321 320 320 319 319 320 320
331 329 329 330 331 331 330 329 330 331 332 332 330 329 330 329 328 328 329 330 332 333 335 337 339 341 344 344 342 342 345 346 347 346 345 345 345 346 347 348 348 347 346 345 344 342 341 339 337 336 337 335 332 332 335 335 334 334 335 336 336 336 334 333 333 332 332 332 331 330 330 329 329 328 327 325 322 320 320 320 320 319 319 318 318 318 318
328 326 325 325 326 327 327 327 327 329 330 330 329 328 328 327 327 327 328 331 331 329 330 334 335 336 340 341 341 344 345 346 346 346 346 345 343 344 345 345 345 346 345 343 342 342 340 338 335 334 335 335 333 330 331 333 334 333 334 335 334 334 334 334 332 331 332 332 331 331 331 330 329 329 329 327 324 321 318 317 317 317 317 317 317 316 315
324 324 322 322 323 323 325 326 327 328 328 327 327 327 327 327 329 328 327 328 329 327 328 331 331 333 336 338 340 342 344 345 344 342 342 342 340 341 343 343 343 344 344 341 340 340 337 336 334 333 333 335 334 330 329 332 334 333 333 334 334 333 333 332 331 330 330 330 331 330 330 330 329 328 328 328 327 324 320 318 317 317 317 316 315 314 314
322 321 320 319 320 322 325 326 326 325 324 324 325 325 325 326 327 326 325 326 326 326 327 329 329 332 336 337 338 340 342 342 340 336 336 336 335 336 340 341 341 341 340 339 338 336 334 334 333 332 332 334 334 331 330 332 334 333 333 333 332 332 332 331 330 330 329 329 330 330 328 328 328 328 328 329 328 326 324 323 321 319 318 317 315 314 314
319 319 318 320 322 324 324 324 324 323 324 324 324 324 324 324 324 323 323 324 324 325 326 326 328 333 336 337 337 340 341 340 340 338 337 335 333 334 338 341 339 338 339 338 336 334 333 332 333 333 334 334 333 330 330 332 333 333 332 331 330 332 333 332 332 332 331 329 330 330 329 328 328 328 328 328 327 327 326 326 324 322 320 318 316 314 314
319 321 322 323 324 323 322 323 323 323 323 324 324 325 325 324 324 324 324 324 324 325 326 327 328 331 333 335 339 340 339 338 338 338 337 334 333 336 339 338 337 337 338 336 334 333 333 333 333 336 336 334 332 331 330 331 332 332 331 331 332 333 334 333 333 332 331 330 329 329 328 328 328 327 327 326 325 325 324 324 324 323 321 319 317 315 314
321 323 323 323 322 321 321 322 323 323 324 325 326 326 325 324 324 324 324 325 325 325 326 328 330 330 331 333 337 340 339 337 336 336 335 335 338 339 337 336 336 337 336 334 333 334 334 333 333 335 336 334 331 331 330 331 332 332 332 332 332 332 331 331 331 330 329 329 329 328 327 327 327 327 326 324 324 323 322 321 321 320 319 317 316 314 313
323 323 322 322 321 321 322 324 325 326 326 326 326 325 324 324 324 324 324 325 325 325 326 327 330 333 335 335 334 335 335 335 335 334 335 337 339 338 335 335 336 336 335 336 334 334 335 335 334 335 335 332 330 330 331 330 331 331 331 332 331 329 327 328 329 328 327 328 328 327 327 327 326 325 324 323 321 321 320 319 318 316 315 314 312 311 310
324 323 322 323 323 324 325 326 327 327 326 326 325 324 324 323 324 323 323 324 325 325 327 328 329 333 337 337 335 334 334 335 335 336 337 338 338 336 334 334 334 334 335 336 335 335 335 335 334 334 334 332 329 329 329 329 330 331 331 330 330 328 326 326 327 327 327 327 328 327 326 325 324 323 322 321 320 319 318 317 316 315 314 313 311 310 308
324 325 324 325 325 325 325 326 325 324 325 324 324 324 323 323 323 323 323 325 325 326 328 329 330 330 332 334 335 336 338 340 339 338 338 338 337 335 334 333 333 335 336 336 335 335 335 333 332 332 332 332 331 329 329 329 331 331 330 329 329 328 326 325 326 326 326 326 326 326 325 324 323 322 320 319 319 318 317 316 316 315 314 313 311 308 307
323 323 323 323 322 322 322 322 322 323 323 323 323 323 323 323 323 323 324 324 325 326 327 329 329 328 328 331 335 338 339 341 341 338 337 336 335 334 334 334 335 336 336 335 334 333 332 331 331 330 330 330 329 329 329 329 329 329 329 328 328 327 326 325 325 325 325 325 324 324 323 322 321 320 319 319 318 318 317 317 316 315 314 312 310 308 307
321 321 320 320 320 320 320 320 320 320 320 321 321 322 322 323 323 324 324 325 325 325 326 326 327 327 327 331 337 337 336 338 339 335 333 332 332 333 334 335 335 335 333 333 332 331 330 330 330 329 329 329 327 327 328 328 328 328 328 327 327 326 326 325 325 325 325 324 323 322 322 321 320 319 319 319 318 318 317 317 315 314 313 312 310 309 307
320 320 320 321 321 321 321 321 320 319 319 320 320 320 322 323 323 323 323 323 323 323 324 325 327 327 326 329 335 336 335 336 336 333 332 333 334 334 334 334 334 332 331 330 329 329 329 329 329 329 328 327 326 327 328 327 327 327 327 326 325 325 324 325 325 324 323 323 322 321 321 320 319 318 318 318 317 316 316 315 315 314 313 311 310 309 308
319 320 320 320 321 322 322 322 322 322 321 322 322 322 323 324 324 323 323 323 322 323 324 324 326 327 325 326 330 333 332 334 335 333 332 333 332 332 332 332 331 330 329 329 328 328 328 326 326 326 327 326 327 327 327 326 326 326 325 324 324 324 324 324 323 322 322 321 321 320 319 319 318 317 316 316 316 316 315 314 313 313 313 312 310 309 308
319 319 320 320 320 321 321 321 322 322 322 322 323 323 323 324 324 324 324 323 323 323 325 325 326 326 325 327 332 334 333 333 334 334 333 331 330 329 329 329 328 328 328 328 328 327 325 323 323 324 325 326 326 325 325 324 324 324 324 323 323 323 322 322 322 321 321 320 320 319 318 318 317 317 316 315 315 315 314 313 312 312 312 311 310 308 308
319 319 320 320 320 321 321 321 321 321 321 321 322 323 323 323 324 324 325 326 325 324 325 326 327 326 326 329 334 335 334 333 332 332 331 330 328 328 328 328 329 329 328 327 326 325 323 322 323 323 324 324 324 323 323 322 321 322 322 322 321 321 321 320 320 320 319 318 318 317 317 316 316 317 316 315 314 313 313 311 311 310 310 310 309 308 307
319 319 320 320 320 320 321 321 320 321 321 322 323 324 324 324 324 324 325 325 326 327 326 326 328 329 330 331 333 333 332 331 330 330 329 328 328 328 327 326 326 326 325 325 325 323 322 322 323 323 322 322 322 321 320 320 319 319 320 320 319 318 318 318 318 318 317 316 316 316 315 315 315 315 314 314 313 312 312 311 310 309 309 309 308 308 307
319 320 320 320 320 321 321 321 321 322 322 323 323 324 324 324 325 326 326 326 328 330 330 330 331 332 332 332 331 330 329 329 328 328 327 327 328 328 326 325 324 324 323 324 322 321 320 322 322 321 320 320 319 318 318 318 318 318 318 318 317 317 317 316 316 316 315 315 315 315 314 314 314 313 313 313 312 311 311 310 309 308 308 308 307 307 306
320 320 320 320 321 322 322 322 322 322 323 323 323 324 325 326 327 328 328 328 328 329 330 331 331 331 331 329 328 327 326 327 327 326 325 326 326 326 325 325 324 323 322 321 319 319 319 320 320 319 318 319 318 317 317 317 317 317 317 317 316 316 316 315 315 315 315 314 314 314 313 313 313 312 312 311 310 310 310 309 308 308 307 307 306 306 305
321 321 320 321 322 323 323 323 323 324 324 324 323 325 326 327 327 327 327 325 325 327 328 328 328 329 328 327 326 325 325 326 327 326 325 325 325 324 323 324 323 322 320 319 318 318 319 319 318 317 317 317 316 315 314 314 314 314 315 315 315 315 315 314 314 314 314 313 313 312 312 312 311 311 310 310 309 309 308 308 308 307 306 306 305 305 305
322 322 321 322 322 322 322 323 323 324 324 324 324 325 327 326 325 324 325 325 326 327 327 326 326 326 326 325 325 326 326 325 325 325 325 324 323 323 323 322 322 321 320 319 319 319 318 316 316 315 315 315 314 312 311 310 311 312 312 313 313 313 313 313 312 312 312 312 311 311 311 310 310 309 309 309 308 308 307 307 307 306 306 305 305 305 305
322 322 322 322 322 322 323 323 323 322 323 323 323 325 327 326 325 323 323 324 325 326 325 325 325 324 324 323 324 325 325 325 324 324 324 323 323 322 322 321 320 320 320 320 318 317 315 314 314 314 313 311 309 308 308 308 310 311 311 311 312 312 312 311 311 310 311 310 310 310 310 309 309 308 308 307 307 307 307 306 306 306 305 305 304 305 304
322 322 322 322 322 322 322 322 321 321 322 323 324 324 325 324 322 321 322 323 323 324 324 324 324 324 323 323 323 324 324 324 324 324 323 323 322 321 320 319 319 319 320 319 316 314 312 311 310 309 307 305 304 306 308 309 309 309 309 309 310 310 311 310 310 310 310 310 309 309 309 308 308 307 307 306 306 306 306 305 305 305 305 304 304 304 304
323 323 323 323 323 323 322 322 322 322 323 324 324 325 325 324 322 321 321 322 322 322 323 323 324 323 323 323 322 323 323 323 323 322 322 321 321 320 319 319 318 318 318 317 315 312 310 308 306 305 304 303 304 306 309 309 308 308 307 307 308 308 309 309 309 309 309 309 308 308 308 307 307 306 306 305 305 305 305 304 304 304 304 304 304 304 304
323 324 325 325 324 324 323 324 323 323 323 324 324 325 325 325 324 323 323 324 323 323 323 323 323 324 324 323 323 322 321 321 321 321 321 320 320 319 319 318 317 316 315 314 311 309 307 306 305 305 305 305 305 307 309 308 307 307 307 306 306 306 307 307 307 307 308 308 308 307 307 307 306 305 305 305 305 304 304 303 303 303 304 304 304 304 303
322 322 323 324 324 324 324 324 324 323 323 323 323 324 325 325 324 324 324 325 325 325 324 323 323 324 324 323 323 323 322 321 321 321 320 319 319 318 317 317 316 314 313 312 310 306 305 305 306 306 306 306 307 308 309 309 307 306 306 305 305 305 305 305 305 306 306 307 307 306 306 306 305 305 304 304 304 304 303 303 303 303 303 304 304 303 303
321 321 321 322 324 324 323 323 323 324 324 323 323 324 324 325 325 325 324 324 324 324 324 324 323 324 324 323 323 323 323 322 321 320 319 319 319 317 315 314 313 312 312 313 312 308 305 305 306 306 306 306 307 308 309 309 308 307 306 305 305 304 304 304 304 304 305 306 306 305 305 304 304 304 304 304 304 303 303 303 303 303 303 303 303 303 303
322 323 323 323 323 323 323 323 323 323 322 322 323 323 324 324 324 324 323 323 323 323 323 323 322 323 323 323 322 322 321 321 320 320 319 318 317 316 314 313 312 310 311 313 313 310 307 305 305 305 306 307 308 308 308 308 308 307 306 305 305 304 304 303 304 304 304 305 305 304 304 304 304 304 304 303 303 303 303 303 303 303 303 303 303 303 303
320 321 321 321 322 322 323 323 323 321 320 321 322 323 323 323 323 322 322 322 322 322 322 322 321 321 321 322 322 321 320 320 319 319 318 318 316 315 315 314 312 311 311 312 313 312 309 307 306 306 306 307 308 308 308 308 307 306 306 305 304 304 303 303 303 303 303 304 304 304 304 303 303 303 303 303 303 302 303 302 302 302 303 302 302 302 302
Wind_Speed
16 20 20 17 15 14 15 15 17 19 20 20 18 15 13 8 6 5 6 11 12 11 11 13 9 6 5 2 2 1 2 3 5 5 4 6 8 10 10 9 8 7 10 12 14 17 21 23 23 24 24 23 24 25 23 22 24 24 21 20 18 15 14 13 12 12 13 13 12 12 12 12 11 11 11 11 11 11 12 12 12 13 14 14 15 17 17
16 21 23 22 20 16 16 18 19 19 20 21 20 19 20 15 12 11 8 9 9 8 8 10 6 2 3 2 3 3 5 5 6 6 6 8 8 10 11 11 10 9 10 12 13 16 19 22 24 23 23 24 23 24 25 25 23 21 19 19 19 17 16 15 14 14 14 13 13 13 13 13 12 12 12 11 12 12 13 13 13 14 14 14 15 16 15
16 20 19 18 19 18 18 18 20 21 20 20 20 18 18 16 15 13 6 7 5 6 6 7 3 2 3 4 2 4 4 5 6 7 8 8 7 7 10 12 11 10 9 9 10 13 18 22 24 24 24 25 25 24 26 25 21 18 17 19 20 19 17 16 16 16 16 15 15 14 14 14 13 13 13 13 13 14 14 14 14 14 14 14 14 14 14
12 14 15 19 21 21 21 21 22 21 17 15 16 14 14 14 11 6 2 3 6 5 5 5 3 3 6 5 5 4 3 4 5 6 7 6 5 5 4 9 12 11 10 10 11 14 19 23 25 25 26 26 27 26 26 25 22 20 19 21 21 19 18 18 18 18 18 17 17 16 16 15 15 14 14 14 14 15 15 14 14 14 14 13 13 14 14
10 14 19 20 18 15 14 15 17 17 15 16 16 14 15 14 8 4 4 5 3 2 1 3 4 3 4 2 1 1 2 3 3 4 7 7 6 6 5 6 10 12 12 13 15 19 22 23 23 25 27 28 28 30 29 27 23 21 21 22 22 20 19 19 20 20 19 19 18 18 18 17 16 15 15 15 15 15 14 14 13 13 13 13 14 14 14
8 14 16 14 10 8 8 9 11 13 15 16 17 18 18 12 5 2 2 1 3 5 2 2 3 3 3 3 3 4 4 3 4 5 6 7 8 7 7 7 8 11 12 13 18 21 18 16 19 23 27 30 33 33 30 27 22 20 23 23 22 21 21 21 21 22 21 21 20 19 18 17 16 15 15 15 15 15 14 13 13 14 13 13 13 13 12
8 10 11 10 9 9 8 9 11 15 18 18 17 18 16 8 2 5 4 2 1 1 0 0 1 2 3 3 3 4 6 4 4 6 6 6 7 7 7 7 7 8 10 13 18 20 20 19 22 24 28 33 33 26 20 18 18 21 24 24 23 23 23 22 24 24 24 23 22 20 18 17 16 16 16 16 16 15 14 14 14 14 13 12 13 13 12
8 8 9 9 7 7 7 8 10 14 15 14 13 12 11 8 1 5 4 5 4 4 4 3 2 4 5 4 2 5 8 8 7 8 7 7 8 7 6 6 5 5 9 12 15 19 25 26 24 25 27 25 20 14 12 14 19 22 24 24 24 24 24 25 26 26 25 24 22 20 17 16 16 16 16 16 16 15 15 15 15 15 14 13 14 15 15
7 9 9 7 4 6 8 8 8 9 9 9 9 8 8 9 6 2 3 4 4 5 4 3 2 1 0 2 5 9 12 9 7 6 7 7 6 5 5 5 5 6 10 13 13 16 24 26 24 24 22 18 16 11 12 20 23 21 22 23 24 25 25 26 26 25 24 22 20 18 17 16 16 16 15 15 15 16 16 16 16 16 16 15 16 16 17
5 8 9 8 7 8 7 8 7 9 11 10 9 9 6 5 8 8 5 4 4 4 2 2 3 1 2 4 5 6 5 3 5 5 7 6 2 4 5 6 7 8 10 13 14 15 22 26 26 26 24 21 15 15 22 26 24 22 22 22 23 24 24 23 23 22 21 20 18 18 17 16 15 14 14 15 15 15 17 17 17 16 16 16 17 17 18
4 8 9 7 8 7 4 6 8 11 13 10 7 10 6 1 5 6 3 5 6 3 2 4 4 3 4 6 2 4 4 1 3 4 4 3 2 6 6 7 9 11 11 13 14 16 21 24 26 27 27 28 26 23 25 27 24 22 23 23 23 23 22 20 20 19 19 19 18 17 16 16 15 14 14 14 14 15 17 18 17 17 18 18 19 19 19
7 9 9 7 6 3 0 4 7 7 10 9 8 9 4 1 4 5 4 6 5 4 3 3 3 4 4 4 3 2 3 5 1 4 1 2 3 5 7 9 11 11 13 13 14 18 21 22 26 30 31 31 27 23 24 25 22 22 23 23 22 21 20 19 18 18 18 18 18 17 16 15 14 14 14 14 14 14 17 18 17 18 18 18 20 20 18
9 10 10 8 5 1 1 4 3 4 9 10 8 6 2 1 4 3 1 2 4 4 4 4 4 4 2 3 5 4 5 5 2 5 2 2 2 5 8 12 14 13 13 13 13 17 20 22 26 30 31 28 24 22 21 20 20 20 20 21 20 19 18 18 18 18 19 18 18 18 16 14 13 13 13 14 14 15 16 17 18 21 20 20 21 20 19
10 9 9 8 5 1 2 5 7 4 5 6 2 2 2 3 3 2 2 2 2 1 1 2 3 4 3 5 7 7 9 6 4 6 4 4 3 9 9 14 16 14 14 14 14 16 18 20 21 21 21 20 18 17 16 16 17 14 12 14 17 17 17 17 17 18 18 19 18 17 15 15 13 12 14 14 14 14 15 18 21 21 17 17 19 20 21
7 8 7 5 4 3 1 1 3 5 1 2 2 3 4 5 5 5 3 4 5 5 4 3 6 7 7 9 9 10 10 3 5 6 5 5 3 8 10 16 17 16 15 15 16 16 16 16 16 14 15 14 11 11 10 10 11 8 7 9 11 14 17 17 17 18 18 17 16 15 15 13 11 11 13 13 13 14 15 17 19 14 12 16 19 18 18
3 4 3 1 2 3 6 6 5 5 5 2 1 3 3 4 5 4 5 5 5 5 4 4 6 7 7 8 9 10 6 2 5 5 5 6 2 6 9 16 18 17 16 16 17 19 18 15 14 14 12 8 5 6 6 4 5 6 7 7 8 10 13 16 17 17 13 10 8 8 10 10 10 11 12 12 14 16 14 16 18 16 14 17 16 11 10
2 1 1 2 4 6 8 9 6 5 7 5 5 6 4 4 4 4 4 5 6 6 6 5 7 7 7 7 9 10 7 3 6 6 5 6 6 3 13 15 19 18 15 16 17 19 20 17 14 13 11 6 2 2 1 2 1 1 3 6 8 8 10 11 12 10 9 7 6 7 10 10 9 11 14 15 16 15 15 17 19 16 14 15 15 9 4
2 3 4 4 6 7 7 8 8 8 9 9 9 8 7 6 5 3 3 5 6 6 6 7 7 7 9 8 8 9 9 6 6 9 6 5 11 2 18 15 15 17 13 14 13 13 15 14 12 10 8 7 5 3 3 1 1 1 2 5 7 9 9 8 8 8 9 9 8 9 11 9 9 13 15 13 10 13 17 19 17 13 10 10 11 9 5
4 1 1 2 5 7 6 7 9 10 10 10 9 8 6 5 4 5 5 5 5 5 5 6 6 8 9 8 8 8 7 5 3 8 4 2 9 7 17 13 16 19 15 14 11 7 9 11 10 9 10 10 8 7 6 4 1 1 4 5 5 7 8 8 9 10 11 10 9 9 10 10 11 15 15 10 10 15 18 15 9 7 7 7 6 6 4
1 1 2 4 6 9 8 7 7 7 8 9 9 7 6 6 6 7 7 6 6 6 6 5 6 8 6 5 8 8 6 6 6 7 6 8 7 4 14 11 16 19 16 16 14 11 9 9 8 8 9 7 5 4 6 5 3 6 8 7 7 8 8 9 10 10 10 11 9 7 6 5 4 6 7 6 7 10 10 5 3 5 6 5 5 5 3
2 5 5 1 5 8 9 8 8 6 6 7 7 6 7 8 8 9 9 8 8 9 9 7 7 8 5 4 5 5 6 9 8 6 7 11 12 12 12 3 9 15 16 17 17 14 12 11 11 9 8 5 1 1 2 4 6 8 8 7 7 7 7 9 8 6 6 6 5 4 4 3 2 2 2 0 2 2 1 2 4 5 5 6 7 7 5
1 2 5 4 3 4 4 6 7 6 5 5 6 6 7 9 9 9 10 10 9 10 11 8 6 6 5 4 3 5 7 9 7 4 8 10 1 9 8 3 10 16 19 19 18 16 13 12 12 10 8 6 3 3 5 7 6 5 4 5 6 6 7 7 5 3 4 5 5 5 5 5 6 5 2 2 1 0 1 3 5 6 6 6 6 5 4
3 4 4 5 4 4 3 4 5 4 4 4 5 6 8 8 9 9 9 10 9 9 9 8 6 5 5 3 1 4 6 8 9 9 9 9 10 13 9 7 10 15 17 18 18 16 13 12 11 10 9 7 5 5 7 7 6 3 2 4 5 6 7 3 2 2 4 8 9 9 8 8 9 9 6 3 1 1 2 3 4 5 6 6 6 5 5
6 6 6 6 5 3 3 4 4 2 4 4 4 6 8 8 9 9 9 8 8 8 8 7 4 3 2 3 2 2 5 8 9 11 12 12 12 11 10 11 13 15 14 14 16 16 14 14 11 10 10 8 6 6 6 5 4 2 2 4 5 6 7 5 3 4 3 5 7 9 8 7 7 6 8 6 3 3 2 3 3 4 5 7 7 7 6
6 6 6 5 5 7 6 5 5 2 5 5 5 7 8 8 9 9 8 7 8 9 9 7 5 3 1 2 3 2 6 8 10 12 12 13 13 12 12 13 16 17 15 15 15 15 15 13 11 10 9 8 6 5 5 5 4 2 1 3 5 6 6 5 5 5 5 4 5 4 3 2 3 1 4 6 5 4 4 3 3 4 6 8 9 9 8
6 5 5 4 5 6 6 6 5 6 8 7 7 7 8 9 8 8 9 9 9 11 10 8 7 5 4 4 4 2 4 5 4 5 3 2 3 5 9 12 15 16 16 15 15 14 13 12 11 10 8 8 7 5 4 5 4 2 1 2 4 5 4 3 4 5 6 5 3 2 2 1 2 2 1 5 7 7 6 4 4 4 5 6 7 8 9
7 6 6 5 4 4 5 6 7 9 10 9 8 8 9 10 9 9 11 12 11 12 11 11 9 6 4 5 4 3 7 8 9 9 7 3 6 13 10 12 15 14 15 15 14 14 13 11 10 9 8 8 8 5 4 5 5 3 2 2 3 3 3 3 3 4 4 2 1 2 2 2 1 0 1 3 5 7 7 6 6 6 4 4 5 7 9
4 4 5 4 4 5 7 8 8 9 9 9 8 8 9 10 10 10 11 11 11 10 11 12 11 6 4 5 4 3 8 9 7 7 9 9 13 15 11 12 13 13 14 13 12 13 12 10 10 10 8 7 6 5 5 6 5 3 3 3 2 1 1 2 1 1 2 3 3 2 1 2 2 1 2 1 2 3 3 4 7 9 7 5 5 6 7
2 2 3 4 5 5 6 6 7 7 7 8 8 8 9 9 10 9 9 10 10 9 9 11 12 9 5 4 4 4 5 6 7 7 6 9 11 12 13 13 12 11 11 11 10 11 10 9 9 10 9 7 5 5 5 5 5 4 3 2 2 2 2 2 2 2 2 2 1 0 1 1 1 0 1 1 3 5 5 4 5 8 8 7 6 5 3
4 5 5 5 6 7 7 6 6 7 7 8 8 8 9 10 10 9 9 9 10 9 8 10 11 9 5 4 6 7 8 7 8 9 8 8 9 12 14 12 10 9 8 9 9 9 9 8 8 8 8 6 5 5 5 4 5 5 4 3 4 3 1 2 3 3 2 2 2 1 1 1 1 2 3 3 4 4 6 7 7 7 7 6 5 4 3
6 6 6 7 7 8 7 6 6 6 7 8 9 10 10 10 10 10 9 9 8 9 8 9 8 5 4 5 7 8 8 8 8 8 9 9 10 12 13 12 10 8 8 9 9 8 8 7 6 6 5 3 3 4 5 4 5 7 7 6 5 2 2 3 3 3 3 4 3 2 3 3 4 3 3 4 4 5 5 5 5 6 6 7 7 6 6
7 7 8 8 7 8 7 7 7 8 8 9 9 9 9 9 10 10 10 9 9 9 8 8 8 5 4 6 7 6 6 7 7 9 11 10 9 10 12 11 10 9 10 11 10 8 8 6 5 4 2 2 3 3 4 4 5 7 7 7 6 4 3 3 3 3 3 4 4 3 3 5 5 4 4 4 5 4 4 4 4 5 5 6 6 7 7
7 7 7 8 8 9 9 8 9 9 10 10 9 9 9 9 10 10 10 10 10 10 8 7 7 9 7 6 9 9 7 6 6 7 8 9 10 10 11 10 8 8 10 11 9 7 7 6 5 4 3 4 4 4 4 3 5 7 7 6 6 5 5 4 4 3 3 3 4 4 5 6 5 4 4 6 5 4 4 5 6 6 5 6 7 7 6
8 7 8 9 10 10 10 10 9 9 9 10 10 9 9 9 9 10 11 11 10 11 12 10 9 12 15 10 7 10 9 7 5 3 1 3 5 8 10 10 9 8 9 9 7 7 6 5 4 4 4 5 5 5 3 2 4 5 6 6 6 5 4 4 4 4 4 5 6 5 5 5 6 5 5 5 5 6 6 5 5 5 5 6 7 6 4
8 9 10 11 11 12 13 12 11 11 11 11 11 11 10 10 10 11 12 12 12 14 16 15 11 12 14 8 4 8 6 6 6 6 3 5 8 9 9 10 10 10 10 9 7 6 6 5 3 2 3 5 6 5 3 3 4 4 5 5 5 5 4 3 3 4 5 6 6 5 5 5 6 5 5 4 5 7 7 6 4 6 9 9 8 7 5
11 11 11 10 11 13 14 12 12 12 12 11 11 11 11 12 13 14 14 15 16 17 18 17 13 11 12 8 7 9 10 9 9 10 9 10 11 10 9 9 10 11 10 8 7 7 6 4 3 3 1 3 3 2 3 2 4 4 5 5 5 5 5 5 4 4 4 5 5 5 5 6 7 6 6 6 6 6 5 5 5 6 10 11 10 8 6
12 12 11 10 12 14 14 14 14 15 13 13 13 12 13 14 16 17 17 18 18 18 18 17 13 11 10 9 7 9 12 12 11 13 12 11 9 7 7 8 9 10 8 7 8 9 6 3 4 5 2 1 1 2 3 3 4 5 4 4 4 5 6 5 5 4 4 5 5 6 7 7 8 6 5 6 8 8 4 3 3 2 5 8 8 5 3
14 15 15 14 14 15 15 16 18 18 17 15 15 15 16 17 18 18 19 19 18 18 17 16 14 11 10 7 2 2 7 10 13 14 12 11 10 8 6 6 7 7 6 7 9 9 7 5 6 7 4 2 2 3 3 4 5 4 3 3 4 4 5 6 5 5 5 5 6 8 7 6 7 7 6 7 7 6 2 2 3 0 4 7 6 3 2
15 16 17 17 17 17 17 18 19 19 19 17 16 16 18 20 20 20 19 19 19 19 17 14 12 10 7 3 3 6 7 10 12 12 11 10 9 7 5 5 5 5 8 10 9 8 7 7 7 5 4 3 3 3 3 5 6 4 4 5 5 5 6 7 7 8 7 5 5 6 5 5 6 7 8 8 5 3 2 2 3 5 5 3 3 3 5
14 14 16 17 16 16 17 17 17 19 19 19 18 18 19 21 21 21 20 20 20 19 15 11 8 5 4 5 5 4 6 9 11 11 11 11 10 10 9 9 8 7 7 7 6 6 6 5 4 4 3 3 3 3 3 6 7 6 5 5 6 5 5 6 7 7 6 5 4 4 4 6 6 6 6 6 4 2 2 2 3 5 6 5 2 2 4
14 15 16 16 15 15 17 17 16 17 19 19 19 21 21 21 21 20 20 19 17 12 7 5 3 2 3 4 6 8 9 10 11 11 12 12 10 7 6 4 3 4 5 5 5 7 6 3 3 4 3 2 3 4 3 4 7 7 4 4 5 5 5 5 5 5 5 6 6 5 6 7 7 6 6 7 8 8 7 5 2 3 7 7 4 2 5
15 16 16 15 13 14 16 17 15 15 16 16 19 20 19 18 18 17 15 15 13 7 5 6 5 5 6 7 9 10 9 9 11 10 9 7 5 3 4 6 7 7 8 8 8 8 6 4 4 5 4 3 3 3 3 4 5 6 6 5 6 7 7 6 6 7 7 6 7 7 8 8 8 8 8 9 9 9 8 7 6 6 7 7 5 5 7
15 15 14 13 11 11 13 14 13 12 12 14 18 17 13 12 14 12 9 8 9 4 5 9 8 7 7 7 8 7 6 8 10 7 5 4 4 5 7 9 10 10 11 11 10 9 7 6 6 6 5 5 5 4 2 3 5 7 8 7 8 9 10 10 11 12 12 11 11 11 10 10 9 10 11 11 11 9 8 7 7 6 6 6 7 8 7
15 14 13 12 12 13 14 13 11 9 9 12 15 13 7 6 9 9 6 7 8 3 7 8 6 6 7 7 7 6 6 8 9 7 6 5 4 5 8 11 10 9 10 10 9 8 8 9 8 7 6 4 3 1 2 4 7 9 9 8 8 8 8 8 9 10 9 9 10 10 9 9 9 10 10 9 8 8 7 6 6 7 7 7 8 9 7
12 12 12 12 12 12 11 10 10 10 9 7 8 9 6 5 6 7 6 6 6 0 6 6 5 5 6 5 5 6 7 7 7 6 5 5 5 6 9 9 8 9 10 9 7 8 10 10 9 7 4 2 2 2 3 5 8 8 7 7 8 8 9 11 12 9 7 8 9 9 9 9 9 8 7 5 3 4 5 6 7 8 8 8 8 8 7
11 11 10 10 9 9 8 8 10 12 9 4 3 5 8 8 9 10 10 8 6 6 4 1 2 4 4 4 5 6 7 6 5 4 5 6 9 11 11 9 9 11 11 9 8 11 12 10 7 5 2 1 2 2 3 4 5 5 6 8 8 9 10 14 15 10 7 9 10 9 9 9 7 6 6 4 2 4 5 6 7 9 9 8 8 8 8
10 9 8 7 6 6 6 6 6 8 7 4 3 3 4 6 5 6 7 8 4 3 5 4 2 1 3 4 5 6 7 6 6 5 5 7 10 13 12 10 10 11 10 10 12 13 12 10 8 5 3 3 4 5 5 4 3 3 4 6 8 8 10 13 16 14 10 10 8 6 6 6 5 6 7 6 4 4 6 6 8 10 9 8 7 8 8
8 8 7 7 6 6 6 5 4 4 5 5 4 4 4 4 4 4 4 4 3 1 1 1 1 0 3 4 5 6 6 6 6 6 8 10 11 12 11 11 11 10 8 10 12 13 12 10 9 7 5 4 5 7 6 4 1 1 2 5 8 10 9 11 14 14 12 10 8 5 5 6 6 7 8 8 8 8 9 9 9 9 9 9 9 10 9
9 9 8 7 6 7 7 6 5 4 6 7 7 6 6 5 4 3 3 2 2 1 1 2 1 2 3 5 5 6 5 5 5 6 8 11 12 12 12 14 15 13 10 10 12 13 12 10 9 8 7 5 6 9 9 8 6 4 4 6 8 8 7 7 11 14 11 7 7 6 5 6 8 9 10 11 10 9 9 10 10 10 10 10 10 10 9
8 7 6 6 7 8 8 6 6 7 8 9 8 6 5 5 4 3 2 2 2 2 2 3 3 4 5 6 7 6 5 6 6 7 9 11 12 12 13 15 16 15 13 10 11 13 13 10 8 8 7 6 6 10 12 11 9 8 8 8 8 6 6 9 11 12 10 6 5 5 5 6 9 10 11 11 11 10 10 11 11 10 10 10 10 9 9
5 5 3 2 2 3 4 5 7 8 9 9 8 6 5 5 4 4 4 4 4 3 3 4 6 7 7 6 6 7 8 8 7 8 10 12 13 13 13 13 14 16 15 12 10 13 14 12 10 10 9 7 8 10 10 10 10 10 10 10 10 10 10 10 10 9 8 6 6 6 7 9 11 12 12 12 11 11 11 11 10 9 9 10 10 10 9
4 5 5 3 2 1 1 1 2 2 3 4 5 5 6 5 4 3 3 3 4 6 6 5 6 9 10 9 8 9 10 10 9 9 10 12 12 12 13 12 12 13 14 12 11 12 13 12 11 12 11 10 10 10 9 7 8 9 10 10 11 12 12 10 9 9 10 9 8 8 10 12 12 12 12 12 11 11 11 11 11 11 9 9 11 11 11
Wind_Direction
226 249 261 257 243 233 226 227 231 226 228 241 248 252 246 215 203 225 180 182 204 198 196 211 211 217 238 189 113 347 321 285 276 267 230 209 188 174 180 180 172 196 213 200 193 198 196 189 183 181 181 180 176 173 172 157 144 148 158 164 170 176 183 189 192 196 205 211 213 219 226 232 237 241 246 251 258 266 272 277 280 280 283 288 292 294 295
220 227 239 250 253 245 230 229 236 234 227 227 234 246 250 244 238 235 194 172 206 216 219 235 240 285 317 43 64 319 304 296 285 280 271 256 223 185 181 185 175 181 210 210 194 190 191 186 181 180 179 176 169 162 156 150 147 154 162 167 174 181 185 190 196 201 206 209 212 216 222 227 232 237 239 244 252 257 261 266 271 275 279 283 288 291 293
234 228 226 238 251 254 247 240 239 240 233 226 225 232 241 244 245 243 207 149 190 224 222 232 250 49 84 116 181 252 272 279 276 274 271 267 253 210 186 182 176 170 184 199 189 182 187 186 181 179 178 172 165 158 152 150 152 156 163 174 181 183 187 191 195 200 205 207 211 215 220 225 229 232 237 242 249 253 256 261 266 270 274 279 284 287 289
244 241 237 235 235 241 247 247 246 246 242 237 235 232 233 238 239 241 219 195 217 217 207 222 226 161 147 163 208 229 249 269 267 274 285 284 280 275 211 177 172 169 175 190 192 189 190 188 182 179 176 171 165 157 150 151 156 161 170 181 184 185 190 192 194 200 204 206 210 214 219 224 226 231 238 243 250 253 254 258 262 266 271 275 278 282 284
238 240 244 242 237 238 245 248 248 249 244 242 247 246 240 238 231 217 228 244 254 71 65 287 273 224 192 185 255 297 329 322 307 291 294 292 280 278 265 206 178 176 185 192 194 194 191 188 183 176 173 168 157 150 153 158 162 167 178 184 184 187 192 194 197 201 204 206 211 214 218 222 225 231 239 244 251 255 256 258 261 264 267 271 275 280 280
242 245 254 267 266 252 256 271 279 281 270 258 255 258 257 248 224 172 148 110 55 54 38 308 292 300 335 359 344 319 295 279 271 261 265 276 273 264 258 244 207 191 189 189 194 191 181 182 187 177 169 162 154 155 163 165 163 175 186 184 183 189 194 195 199 202 205 208 211 214 217 220 224 230 237 245 251 255 259 261 260 259 260 265 272 275 272
252 251 252 259 258 254 271 292 287 279 279 278 275 277 279 273 181 117 110 128 118 6 326 16 1 310 296 274 261 274 275 267 265 264 258 259 261 257 255 250 227 200 184 184 192 181 167 183 193 177 164 161 159 159 161 162 176 191 187 182 186 192 194 197 201 203 205 207 210 213 215 218 225 232 238 243 248 253 257 259 261 261 259 261 267 268 267
246 249 241 239 248 267 288 299 279 263 265 278 290 300 303 296 216 121 147 198 220 234 218 201 224 233 236 245 243 255 258 248 244 253 252 247 241 232 238 243 225 197 180 186 195 178 168 179 181 166 159 156 144 129 137 178 208 203 185 183 190 193 195 199 202 203 205 206 207 210 213 217 225 234 238 242 246 249 251 254 259 261 260 262 265 265 265
244 242 242 244 253 258 258 264 274 276 276 282 289 293 302 313 310 247 184 173 196 220 209 204 252 261 3 305 272 261 250 220 205 242 258 259 243 204 213 225 199 187 182 185 199 184 165 164 164 156 144 118 95 109 175 210 219 202 185 189 194 195 200 202 202 203 204 205 206 207 211 217 225 234 241 245 249 249 248 251 254 255 256 260 262 263 265
272 255 246 242 242 245 239 231 244 268 271 274 280 271 269 313 298 262 214 165 196 214 200 241 260 326 344 282 272 293 295 171 162 234 256 258 222 163 187 198 180 182 183 184 196 181 156 153 157 151 137 131 145 184 207 218 216 198 193 199 198 200 205 203 203 204 202 205 208 207 211 218 226 236 243 248 252 251 247 249 253 254 256 260 263 265 265
248 252 248 241 246 255 239 204 216 244 254 256 271 267 247 286 306 282 221 208 211 187 197 241 232 215 249 263 280 32 2 293 189 212 243 249 151 152 176 184 175 175 181 188 191 172 154 153 155 152 155 169 185 202 211 211 205 195 198 203 202 204 206 204 204 203 202 206 209 209 214 219 226 236 244 249 254 255 252 251 254 257 258 261 264 263 262
222 237 247 248 253 275 258 200 202 231 258 258 252 249 230 162 279 279 273 248 205 153 178 217 233 239 241 274 316 13 310 279 192 131 132 45 105 156 178 174 171 173 177 187 184 167 161 160 155 157 168 179 188 200 202 200 198 198 200 202 202 204 203 203 204 205 206 208 208 213 220 222 227 236 245 251 256 261 263 258 256 259 259 261 264 264 264
227 231 243 251 242 152 34 307 298 247 245 244 238 234 230 284 245 220 230 225 149 149 191 196 229 253 238 279 301 317 298 282 125 114 114 78 97 230 203 166 163 168 171 180 177 164 161 157 149 154 167 178 189 197 194 195 203 204 201 200 202 203 202 202 206 207 208 210 211 214 217 220 228 236 243 251 258 263 266 264 263 266 265 263 266 272 276
237 230 236 249 247 191 32 354 4 356 239 225 235 289 311 329 353 75 108 117 97 44 260 227 274 304 326 304 301 309 298 276 152 140 162 148 200 244 206 161 161 166 165 171 169 155 153 151 146 156 175 184 190 191 189 200 211 210 204 200 199 202 204 205 210 212 213 215 214 211 212 217 227 237 244 252 262 268 270 268 267 269 278 291 302 307 307
246 240 234 237 249 276 330 38 28 29 42 229 295 3 357 347 5 23 16 8 356 337 330 329 325 329 326 316 313 312 314 339 118 142 149 141 215 241 193 166 167 167 160 162 157 146 148 147 144 165 190 187 182 190 198 210 216 212 217 215 205 206 209 209 215 221 220 215 208 206 211 214 218 233 244 254 270 284 290 287 285 292 308 309 309 311 310
280 251 238 274 324 8 54 71 69 81 105 174 273 45 22 343 359 13 1 356 341 330 334 323 312 309 304 307 303 294 297 84 121 150 149 144 193 258 215 181 169 164 161 158 151 146 154 160 160 178 195 178 168 214 226 227 222 209 213 224 222 219 218 216 219 226 226 220 212 211 215 214 217 233 247 259 267 274 287 296 299 307 304 286 279 286 304
29 62 66 27 6 28 65 74 67 84 96 77 48 60 62 28 22 7 348 357 358 357 349 319 303 300 292 293 298 292 281 213 162 159 169 154 117 301 262 214 168 158 158 151 146 146 152 164 176 191 202 192 181 266 322 14 312 228 210 230 233 239 245 238 232 234 231 228 238 232 221 222 237 250 259 265 267 275 286 282 274 274 280 279 276 279 297
108 53 40 52 42 38 57 73 67 64 69 64 54 52 51 37 16 359 9 6 350 342 331 310 303 301 295 293 293 292 291 272 176 151 173 155 113 132 269 240 157 139 136 133 139 141 133 135 145 151 154 149 132 103 83 73 335 237 236 250 244 244 252 247 235 233 229 229 239 238 234 245 264 263 262 267 283 296 289 271 254 248 263 276 276 272 269
183 172 112 110 73 63 67 71 65 59 56 54 53 51 48 33 14 15 19 355 326 313 301 291 285 286 294 306 304 295 298 295 155 130 130 88 113 171 245 227 141 126 120 117 129 144 124 119 126 125 123 128 127 126 138 136 69 263 237 240 237 231 233 235 237 240 239 236 233 235 247 265 270 262 258 264 279 278 270 261 253 260 272 273 269 271 277
261 270 190 166 110 78 70 68 63 55 52 51 49 48 46 37 29 22 8 353 339 321 305 306 313 304 305 336 336 328 350 22 43 68 54 21 24 274 245 211 145 138 142 140 147 156 142 127 127 127 127 133 140 154 163 162 201 229 218 214 232 241 239 243 245 236 225 223 220 227 257 280 280 261 250 246 250 252 252 262 308 312 311 325 329 320 328
4 3 354 50 106 64 46 56 61 43 41 52 48 41 38 32 28 18 8 6 358 339 333 341 338 330 349 35 16 8 51 63 48 40 52 40 8 319 291 272 118 125 133 137 139 136 125 119 119 116 114 111 101 240 179 164 184 200 198 199 225 241 244 248 248 224 202 216 228 244 264 280 320 329 322 236 177 180 198 341 346 341 349 3 354 345 7
69 50 360 359 84 85 42 47 54 36 31 47 45 39 34 26 22 14 6 4 360 349 344 342 343 2 19 31 54 76 88 92 92 94 89 81 24 267 273 23 81 97 104 110 114 110 108 113 115 114 113 106 90 70 67 80 109 144 172 193 218 241 248 246 237 183 181 214 241 263 283 295 287 282 308 15 11 51 18 2 359 358 5 17 11 9 52
80 97 54 25 62 112 92 40 34 37 37 31 25 33 30 17 11 9 2 357 355 349 340 333 346 21 16 346 54 105 113 119 127 137 136 152 199 208 181 123 99 98 101 108 112 113 117 124 127 131 133 124 107 97 90 87 98 125 180 207 226 247 251 251 47 76 207 220 235 250 263 267 249 221 175 119 64 42 36 23 13 10 22 36 33 45 90
65 55 52 32 7 359 16 6 352 32 60 32 1 15 20 4 356 358 352 343 339 333 322 314 320 5 8 320 302 139 137 142 149 156 167 183 195 184 157 136 120 113 115 120 124 129 137 141 143 143 133 116 97 93 101 109 120 134 191 225 241 251 250 261 320 320 255 228 240 246 245 249 243 197 154 136 114 94 68 35 32 37 50 58 52 51 66
67 58 52 29 339 318 318 309 301 2 60 42 355 357 360 346 340 340 334 326 321 312 304 298 292 293 321 300 280 173 161 179 181 176 183 193 188 175 168 156 140 136 141 142 139 141 144 143 140 133 124 119 117 113 117 130 141 146 214 249 263 272 273 276 282 273 254 249 266 275 268 281 314 25 148 175 176 147 128 103 78 72 74 74 66 53 50
36 34 18 345 301 294 301 300 315 9 26 11 347 342 334 326 327 324 315 308 302 299 302 302 288 267 247 256 260 193 176 187 151 110 82 334 291 238 198 161 144 144 145 143 143 144 143 140 136 132 134 139 139 135 134 138 144 158 202 239 262 275 285 300 298 278 262 250 256 304 1 342 331 2 170 196 187 168 157 141 110 94 88 88 82 71 69
4 354 344 325 299 313 347 354 353 353 348 338 333 330 322 318 318 308 299 295 295 299 306 307 297 279 232 230 238 141 112 103 95 98 105 106 270 258 224 159 142 146 144 140 143 143 140 139 139 141 143 138 133 140 149 142 140 150 177 217 254 262 248 250 278 293 293 309 39 26 355 323 303 265 188 185 173 175 182 174 150 139 133 119 100 88 84
339 325 334 347 358 4 359 348 334 326 323 324 325 323 316 312 308 302 299 299 301 301 302 300 296 282 222 213 219 139 113 114 125 145 157 184 219 225 192 150 145 148 141 137 139 139 140 147 153 153 147 136 140 163 162 149 151 158 169 203 232 234 171 178 171 337 344 24 50 49 352 325 309 268 250 239 129 145 175 179 158 150 147 150 143 117 92
336 7 20 22 9 344 322 313 312 314 317 318 319 321 322 319 316 313 312 313 314 312 311 311 307 293 248 199 176 157 149 155 164 169 192 223 218 187 156 149 153 146 139 139 142 144 152 160 160 157 153 153 173 186 171 163 170 166 162 180 173 128 114 146 155 134 89 78 66 307 23 24 4 313 190 118 95 99 98 104 137 148 145 146 153 144 98
30 27 8 348 334 321 312 314 320 318 317 321 325 329 328 325 322 321 321 322 322 318 312 311 310 298 268 225 198 186 182 180 179 182 202 218 193 159 147 147 144 139 144 150 151 155 165 169 167 165 165 177 199 194 186 189 176 161 158 144 124 121 150 156 155 160 149 151 201 229 148 123 132 145 144 128 110 107 105 101 110 122 116 102 99 90 22
13 2 339 327 324 318 315 320 324 320 319 324 325 321 320 322 322 318 314 312 309 306 306 309 308 292 241 229 230 216 202 194 185 183 188 188 170 155 149 149 153 164 169 162 161 167 168 168 174 169 167 205 231 195 187 193 167 157 163 156 134 135 197 170 165 190 194 187 187 190 180 161 146 157 175 153 124 119 117 108 101 101 96 83 69 47 14
359 343 331 327 327 323 324 330 329 321 317 316 315 313 316 317 312 306 306 307 305 305 308 307 305 293 213 196 207 217 215 203 187 182 184 180 165 152 152 162 178 183 169 160 164 170 168 170 175 159 158 259 262 225 217 213 172 157 164 166 156 144 135 152 172 175 168 180 187 177 165 157 152 167 184 162 143 146 149 143 137 127 114 95 71 47 22
354 340 334 335 334 326 322 320 314 310 308 309 309 309 308 307 306 307 312 314 310 308 306 299 306 317 302 241 205 190 179 162 156 169 175 166 157 159 168 180 189 174 158 159 165 168 171 177 176 173 201 242 244 235 233 193 151 150 158 163 160 143 124 144 178 167 141 150 153 138 139 149 151 148 136 129 141 170 183 181 174 157 122 94 82 65 36
349 338 328 325 321 314 310 310 310 309 308 305 303 303 304 307 311 312 311 309 307 306 304 303 312 319 312 288 211 177 173 161 145 142 170 181 188 190 183 176 166 152 148 156 161 159 161 167 170 189 215 225 228 233 226 166 148 161 164 158 151 143 139 161 182 173 154 146 140 141 155 159 148 140 140 142 160 189 208 217 204 167 132 118 119 107 61
337 325 316 314 311 307 306 306 303 301 301 299 299 302 304 305 305 303 302 302 300 294 291 289 287 288 290 284 170 159 194 199 158 141 170 230 230 217 192 167 155 150 149 150 151 151 150 149 155 181 223 229 230 228 203 187 190 176 164 163 161 155 159 172 174 165 159 154 154 165 180 170 156 163 181 194 211 220 227 235 213 162 144 138 139 129 94
327 322 317 314 312 308 305 302 299 297 296 294 293 292 291 291 292 292 291 290 287 283 282 280 273 268 269 254 190 188 218 215 168 152 178 209 215 205 185 163 152 153 153 151 153 153 142 138 167 186 213 239 229 144 106 169 186 154 147 162 166 159 163 169 171 172 169 168 174 177 169 163 168 180 197 214 227 232 242 260 245 191 154 139 138 137 118
319 315 309 307 307 305 303 301 300 297 293 289 288 288 288 288 287 287 285 284 282 280 278 275 272 268 271 270 250 228 224 208 168 152 168 189 192 184 179 174 172 173 172 167 167 163 146 138 189 193 193 271 249 113 116 162 164 146 154 175 174 171 172 164 158 167 170 170 174 167 161 173 188 194 204 224 234 237 251 299 305 245 156 145 147 142 104
305 302 299 298 298 297 297 297 298 296 294 292 290 288 288 287 285 283 282 280 277 275 272 271 270 266 268 282 314 149 172 166 148 142 153 167 173 182 199 204 200 191 168 142 142 145 135 134 163 176 183 216 194 155 167 185 172 160 173 170 153 157 159 146 148 169 179 180 179 174 177 201 214 205 208 232 245 247 257 51 47 293 197 181 173 155 159
301 300 298 296 296 294 293 293 293 291 289 290 290 288 288 288 288 288 288 285 281 275 267 262 263 262 255 224 122 127 143 141 135 136 141 144 145 144 123 85 75 100 124 129 130 131 131 141 157 171 187 193 174 160 190 202 195 190 189 177 168 169 166 161 171 185 185 180 183 186 202 236 239 223 229 244 244 212 160 74 8 322 292 243 184 172 198
305 302 299 296 296 295 293 290 290 292 296 301 304 304 302 300 297 293 290 290 288 283 272 260 259 255 222 187 163 141 123 121 126 133 134 126 115 103 92 79 70 84 117 140 150 146 142 148 158 162 167 167 145 125 169 205 217 227 216 194 195 208 202 191 195 200 193 185 192 212 240 255 252 245 256 278 295 292 280 314 352 331 303 284 269 239 238
301 298 296 293 293 295 295 294 296 299 303 306 306 303 302 302 300 295 293 293 293 292 286 276 262 209 175 158 127 105 102 108 112 114 118 120 115 107 112 132 148 148 150 156 157 157 164 173 156 140 140 132 114 111 148 213 235 248 242 201 201 230 242 230 224 229 226 218 218 229 244 253 255 254 256 265 274 276 274 273 269 261 261 261 260 261 260
297 296 295 293 294 299 299 297 296 297 297 298 298 296 299 305 308 310 314 314 310 321 29 49 74 118 126 114 105 100 101 109 112 113 120 134 153 191 188 168 158 159 160 151 143 147 157 153 136 140 144 134 137 162 206 230 241 257 262 239 219 224 230 228 230 238 238 230 231 242 247 247 246 243 239 243 252 257 258 256 250 246 255 264 259 239 237
298 297 296 294 297 301 295 290 290 292 295 298 299 298 307 328 335 337 335 310 287 280 74 74 86 109 116 113 113 112 109 114 121 133 154 170 195 207 180 152 142 146 149 145 147 156 154 135 137 154 157 139 139 163 216 258 265 272 276 266 242 225 217 212 214 216 216 216 223 231 235 236 242 247 244 240 238 239 245 253 253 246 246 251 251 243 233
301 303 304 306 308 303 293 290 293 294 293 299 300 297 307 357 0 354 333 280 260 202 108 97 98 98 93 95 106 112 116 123 133 149 160 151 147 156 150 146 152 162 160 161 174 178 154 137 145 166 173 165 165 192 282 288 281 282 287 285 270 255 247 243 237 226 220 228 238 239 234 233 241 251 253 246 233 226 227 235 245 248 240 233 237 242 234
315 315 316 320 318 309 302 305 306 296 288 294 307 312 328 9 17 10 353 303 278 106 96 108 129 124 116 128 143 143 142 145 153 165 170 160 151 151 151 156 173 184 182 183 182 159 142 141 151 162 173 224 265 278 286 281 278 282 291 291 283 277 277 278 273 257 240 248 266 274 270 259 249 247 253 256 235 220 223 227 235 242 238 227 228 237 235
336 332 328 329 327 321 321 321 310 299 294 292 303 328 356 18 21 19 24 18 351 341 356 25 176 175 178 182 170 156 152 155 156 154 147 145 156 164 167 170 177 183 186 186 168 150 144 143 142 138 146 219 222 219 240 259 274 293 304 302 295 286 282 287 290 282 249 236 245 257 266 271 275 283 292 296 258 218 222 226 230 237 237 229 224 231 234
339 341 341 336 327 319 323 328 322 317 323 330 306 315 7 30 22 16 39 58 53 335 315 320 315 232 201 185 173 170 172 173 172 169 160 155 161 168 171 173 177 182 184 179 169 163 157 146 132 124 132 171 193 215 232 235 240 269 288 297 302 298 290 292 297 294 270 245 244 260 277 286 294 297 299 302 291 251 239 233 227 228 232 231 226 227 228
342 346 349 344 333 327 330 333 332 326 329 334 331 328 341 4 11 11 32 64 90 143 172 79 44 137 181 175 177 185 185 180 181 183 176 168 168 171 174 175 174 165 147 141 150 157 158 152 142 130 123 155 209 240 258 269 266 255 286 303 306 301 291 290 298 297 280 250 236 251 278 277 267 258 256 255 248 239 236 236 233 228 228 231 230 225 220
5 7 7 357 350 351 349 341 338 342 341 341 345 347 341 339 350 0 358 347 339 312 211 179 182 196 191 190 196 197 188 182 191 190 182 180 184 182 175 171 170 164 150 145 153 161 165 161 149 135 131 162 223 254 273 282 279 275 284 286 282 280 286 305 319 322 311 272 231 221 240 254 252 247 245 243 238 228 224 230 233 228 224 229 231 224 218
354 359 6 4 1 1 356 348 353 1 352 339 333 337 334 322 315 311 299 288 292 290 268 244 232 222 213 214 219 211 190 184 194 194 189 191 192 181 166 165 172 178 181 180 173 172 176 176 167 157 159 182 233 264 283 296 297 290 285 278 268 269 292 309 315 319 317 291 242 222 228 239 242 242 241 240 240 235 229 228 226 219 217 227 234 227 219
318 306 309 327 340 340 344 354 3 2 349 335 327 321 312 310 314 316 309 300 288 277 271 261 251 242 232 223 221 216 207 204 204 197 194 199 197 183 168 166 175 187 199 207 195 179 180 184 184 183 192 213 238 255 277 305 315 304 294 291 288 283 281 280 283 289 290 274 249 238 237 236 237 239 238 236 235 235 233 232 231 226 224 228 232 230 225
302 281 281 302 341 28 46 11 352 318 302 315 318 298 279 273 277 284 288 282 262 252 251 249 240 232 226 219 212 209 209 210 206 198 200 207 202 185 174 175 181 192 208 215 196 177 180 190 193 195 206 225 240 246 255 279 300 301 299 298 293 284 275 265 264 271 272 260 244 238 241 241 238 237 237 236 233 233 236 239 240 240 237 234 231 231 233